STARLINK-33747, 63444

Orbit data source: Space-Track

STARLINK-33747, 63444 is a payload satellite owned by SpaceX/Seattle (US) in LEO that was launched on Fri, 04 Apr 2025 UTC via an FALCON 9 launch vehicle from the Air Force Western Test Range (AFWTR). Payload-class satellites include a variety of spacecraft equipped with specific instruments for various scientific and technological missions. These include communications satellites like Starlink; space stations such as the ISS; scientific satellites like the Hubble; Earth observation satellites from companies like Planet Labs, Umbra, and HawkEye 360; GPS; miniature CubeSats for education and research; and military/defense satellites.

Loading next visibility...
Identifier
63444, 2025-069M
Orbit
LEO
Country
Flag of USUS
Related business
Manufacturer
SpaceX/Seattle
Mission
Operational Commercial Communications
Bus & Motor
STARLINK V2MO, Unknown motor
Mass
575 kg wet, ~530 kg dry
Launch date (UTC)
2025-04-04 (1 year ago)
Launch vehicle
FALCON 9
Launch site
Air Force Western Test Range (AFWTR)
Object type
Payload
Rocket body
Debris
Shape & HBR
Box + 2 Pan, 17.7 m
Radar Cross Section
36.964 m², Large (>1 m²)

Expand to show TLE details & history
Last TLE update: 8 hours ago

TLE from 8 hours ago
0 STARLINK-33747
1 63444U 25069M   26145.43287262  .00033232  00000-0  76911-3 0  9995
2 63444  53.1580 143.2273 0000775 105.1146 254.9946 15.42186370 65135
Epoch: 2026-05-25T10:23Z
TLE epoch observation values (Epoch: 2026-05-25T10:23:20.194Z)
Latitude
0.00001°
Longitude
104.37242°
Altitude
440.699 km
Speed
7.649 km/s
True Right ascension
09h 32m 54s
True Declination
0° 00' 00"
Sunlit
Object was in daylight at epoch
Visualization orbit readout
Latitude
Unknown
Longitude
Unknown
Altitude
Unknown
Speed
Unknown
Apparent Right ascension
Unknown
Apparent Declination
Unknown
Sunlit
N/A
Visualization observer readout
Local Sidereal Time
03:50:33
Azimuth
Unknown
Elevation
Unknown
Doppler factor
Unknown
Orbital elements
Apogee altitude
440.444 km
Perigee altitude
439.388 km
Semi-major axis
6,818.053 km
Eccentricity
0.00008
Inclination
53.158°
RAAN
143.2273°
Arg. of periapsis
105.1146°
True anomaly
254.98602°
Mean anomaly
254.9946°
Eccentric anomaly
254.99031°
Mean motion
3.85525 °/min
Orbital period
93.38 mins
BSTAR
0.00076911
Loading maneuver chart data...
Computing Atmospheric mass density...
Loading historical data...
Loading historical data...
Loading historical data...
Loading historical data...
Loading historical data...
Loading historical data...
Loading historical data...

Documentation

Showing up to 5 results
|